GFSFLT2_prec_radar_000.txt.gz
Reflectivity
3 2 -16 -20 -19 -7 -20 -20 -20 -20 -20 -20 -20 -20 -20 -20 -20 -20 -20 -19 -20 -20 -14 -20 -16 9 18
10 -20 -20 -20 -7 -20 -20 -20 -20 -20 -20 -20 -20 -20 -20 -20 -20 -20 -20 -20 -20 -20 -20 -20 -19 -15 -2
1 -20 -20 -20 -20 -20 -20 -20 -20 -20 -20 -20 -20 -20 -20 -20 -20 -20 -20 -20 -20 -20 4 -20 -8 -4 -16
-8 -20 -20 -20 -17 -13 -20 -20 -20 -20 -20 -20 -20 -20 -20 -20 -20 -20 -20 -20 -20 -6 -20 -8 3 6 10
-20 -20 -20 -20 -11 -20 -20 -20 -20 -20 -20 -20 -20 -20 -20 -20 -20 -20 -20 -20 0 -20 -20 -0 -15 5 -20
-20 -20 -20 -20 -20 -20 -20 -20 -20 -20 -20 -20 -20 -20 -20 -20 -20 -20 -20 -20 -20 -20 -20 -15 2 -20 -18
-18 -20 -20 -13 -20 -20 -20 -20 -20 -20 -20 -20 -20 -20 -20 -20 -20 -20 -20 -20 -20 -20 -20 -20 -12 -13 -20
-19 -4 -1 -12 -20 -20 -20 -20 -20 -20 -13 -20 -20 -20 -20 -20 -20 -20 -20 -20 -20 -20 -20 -20 -20 -13 -4
1 -7 6 14 -20 -20 -20 -20 -13 -15 -20 -20 -20 -20 -20 -20 -20 -20 -20 -20 -20 -20 -20 -20 -20 -20 -20
24 20 12 -7 5 -20 -20 -13 9 -2 -20 -20 -20 -20 -20 -20 -20 -20 -20 -20 -20 -20 -20 -20 -20 -20 -20
27 19 2 -4 1 -20 -20 6 9 -4 -20 -20 -20 -20 -20 -20 -20 -20 -20 -20 -20 -20 -20 -20 -20 -20 -20
-4 12 7 5 5 -20 -4 10 3 -14 -20 -20 -10 -17 -10 -20 -20 -20 -20 -20 -20 -20 -20 -20 -20 -20 -20
-12 2 23 -3 -3 -19 8 8 5 -20 -20 -18 -2 -5 -2 -20 -20 -20 -20 -20 -20 -20 -20 -20 -20 -20 -20
-16 26 11 -16 -20 7 10 10 -16 -20 -20 -20 -20 -3 -10 -20 -20 -20 -20 -20 -20 -20 -20 -20 -20 -20 -20
5 27 9 -5 -1 7 10 3 -19 -20 -20 -20 -20 -20 -20 -20 -20 -20 -20 -20 -20 -20 -20 -20 -20 -20 -20
27 17 10 -20 9 11 7 -19 -20 -20 -20 -20 -20 -20 -20 -20 -20 -20 -20 -20 -20 -20 -20 -20 -20 -20 -20
26 14 -2 8 7 7 -10 -18 -20 -20 -20 -20 -20 -20 -20 -20 -20 -20 -20 -20 -20 -20 -20 -20 -20 -20 -20

GFSFLT2_prec_radar_003.txt.gz
Reflectivity
-16 12 5 -0 -3 -12 4 -20 -9 -11 -20 -20 -20 -20 -20 -20 -20 -20 -20 -20 -20 -20 -0 -20 -20 -20 3
25 25 11 -20 -8 1 -20 -20 -20 -20 -20 -20 -20 -20 -20 -20 -20 -20 -20 -20 -20 -20 -20 -20 -10 -12 3
23 21 18 31 -20 -20 -20 -18 -20 -6 -20 -20 -20 -20 -20 -20 -20 -20 -20 -20 -20 -20 -20 -11 -20 -17 -12
27 21 17 17 23 -20 -0 -19 -20 -20 -20 -20 -20 -20 -20 -20 -20 -20 -20 -20 -20 -20 -2 -20 -20 3 9
28 15 14 24 26 23 6 -8 -20 -18 -20 -20 -20 -20 -20 -20 -20 -20 -20 -20 -20 -8 -15 -20 -20 -20 -20
23 30 5 32 20 3 8 -2 -20 -20 -20 -20 -20 -20 -20 -20 -20 -20 -20 -20 -20 0 -20 -20 -20 -20 -20
28 30 -9 27 22 25 5 -5 -20 -20 -20 -20 -20 -20 -20 -20 -20 -20 -20 -20 -20 -20 -20 -20 -20 -20 -7
29 31 10 5 26 30 20 -9 -20 -20 -20 -20 -18 -20 -20 -20 -20 -20 -20 -20 -20 -20 -20 -20 -20 -20 -20
33 29 10 18 21 20 -18 17 8 -20 -20 -20 -17 -20 -20 -20 -20 -20 -20 -20 -20 -20 -20 -20 -20 -20 -20
32 25 25 32 35 20 35 37 -7 -20 -15 -15 -20 -20 -20 -20 -20 -20 -20 -20 -20 -20 -20 -20 -20 -20 -20
32 31 30 23 39 14 31 30 3 -20 -19 -20 -20 -20 -20 -20 -20 -20 -20 -20 -20 -20 -20 -20 -20 -20 -20
37 36 31 36 29 11 22 11 -20 -20 -20 -20 -20 -20 -20 -20 -20 -20 -20 -20 -20 -20 -20 -20 -20 -20 -20
38 42 36 7 30 4 29 12 -20 -20 -20 -20 -20 -20 -8 -20 -20 -20 -20 -20 -20 -20 -20 -20 -20 -20 -20
23 28 23 13 20 19 28 7 -11 -20 -20 -20 -20 -19 -18 -20 -20 -20 -20 -20 -20 -20 -20 -20 -20 -20 -20
20 28 29 -7 17 25 21 -20 -20 -20 -20 -20 -20 -20 -20 -20 -20 -20 -20 -20 -20 -20 -20 -20 -20 -20 -20
23 18 8 15 30 19 -16 -20 -20 -20 -20 -20 -20 -20 -20 -20 -20 -20 -20 -20 -20 -20 -20 -20 -20 -20 -20
36 21 19 26 17 -16 -20 -20 -20 -20 -20 -20 -20 -20 -20 -20 -20 -20 -20 -20 -20 -20 -20 -20 -20 -20 -20

GFSFLT2_prec_radar_006.txt.gz
Reflectivity
-20 3 -20 -20 10 30 21 9 -13 -20 -15 -1 -20 -20 -20 -20 -20 -20 -20 -20 -20 -20 -20 -20 -20 -16 -20
-17 -2 -20 -20 -2 29 34 25 24 -20 4 -20 -20 -20 -20 -20 -20 -20 -20 -20 -20 -20 -20 -20 -20 -20 11
-4 -0 16 -6 12 29 35 30 24 14 4 0 -16 -19 -18 -20 -20 -20 -20 -20 -20 -20 -20 -20 -20 -8 -20
12 16 3 1 24 26 30 21 30 17 2 4 -19 5 -20 -20 -20 -20 -20 -20 -20 -20 -20 -20 -5 -20 -20
17 24 22 -20 20 28 33 22 24 21 -8 10 -7 -20 -20 -20 -20 -20 -20 -20 -20 -20 -20 -18 -20 -20 -20
38 22 18 17 21 30 34 32 33 6 21 9 1 -20 -19 -20 -20 -20 -20 -20 -20 -20 -20 -11 -20 -20 -20
23 29 19 4 17 29 32 29 29 23 20 25 12 -20 -20 -20 -20 -20 -20 -20 -20 -20 -20 -20 -20 -15 -20
16 17 19 33 43 29 33 31 20 22 37 23 8 17 -20 -20 -20 -20 -20 -20 -20 -20 -20 -20 -20 -20 -20
21 18 34 14 26 34 34 26 29 27 23 22 -8 -20 -20 -20 -20 -20 -20 -20 -20 -20 -20 -20 -20 -20 -20
16 16 28 30 33 38 25 27 28 40 31 29 9 -20 -20 -20 -20 -20 -20 -20 -20 -20 -20 -20 -20 -20 -20
-3 16 29 28 33 27 42 41 33 32 29 -1 -20 -20 -20 -20 -20 -20 -20 -20 -20 -20 -20 -20 -20 -20 -20
23 28 30 26 37 33 33 36 32 24 22 21 0 -20 -20 -20 -20 -20 -20 -20 -20 -20 -20 -20 -20 -20 -20
35 22 37 38 31 35 34 28 19 18 14 -4 -20 -20 -20 -20 -20 -20 -20 -20 -20 -20 -20 -20 -20 -20 -20
28 24 34 31 32 32 11 23 31 6 -20 -20 -20 -14 -20 -20 -20 -20 -20 -20 -20 -20 -20 -20 -20 -20 -20
25 28 29 36 22 29 13 23 15 -19 -20 -20 -20 -20 -20 -20 -20 -20 -20 -20 -20 -20 -20 -20 -20 -20 -20
16 26 28 30 24 25 22 16 -17 -20 -20 -20 -20 -20 -20 -20 -20 -20 -20 -20 -20 -20 -20 -20 -20 -20 -20
15 25 29 29 26 23 17 -2 -20 -20 -20 -20 -20 -20 -20 -20 -20 -20 -20 -20 -20 -20 -20 -20 -20 -20 -20

GFSFLT2_prec_radar_009.txt.gz
Reflectivity
2 -20 -19 -20 -20 3 8 -10 -5 13 27 24 28 18 21 -8 19 -14 -20 -20 -20 -20 -20 -20 -20 -20 -20
-17 -13 -13 19 12 -12 -10 -15 -19 22 13 25 14 32 30 4 20 -20 -20 -20 -20 -20 -20 -20 -20 -20 -20
21 -3 -13 -10 15 -20 18 -20 -20 -20 39 21 18 33 26 23 17 10 -10 -20 -20 -20 -20 -20 -20 -20 -20
23 17 20 10 14 3 8 6 9 -20 20 39 18 28 19 30 22 9 12 -20 -20 -20 -20 -20 -20 -20 -20
13 24 17 42 10 41 21 20 5 -16 -4 35 7 24 27 25 19 37 2 -20 -20 -20 -20 -20 -20 -20 -16
11 11 -4 21 32 37 13 33 40 23 28 24 15 36 30 33 26 27 -6 -20 -20 -20 -20 -20 -20 -20 -20
14 -2 7 12 12 29 16 9 25 32 36 33 8 31 24 34 29 29 17 -20 -20 -20 -20 -20 -20 -20 -19
7 12 12 13 25 27 15 38 40 32 31 37 24 28 34 19 28 8 -20 -20 -20 -20 -20 -20 -20 -20 -20
-17 -20 -11 1 17 29 15 32 29 34 28 32 29 31 35 35 14 7 -20 -20 -20 -20 -20 -20 -20 -20 -20
-20 -3 -20 -20 2 18 20 26 33 39 33 32 32 30 24 25 29 1 -20 -20 -20 -20 -20 -20 -20 -20 -20
-20 -14 -14 -6 24 21 26 27 34 34 31 34 33 37 19 8 7 -20 -20 -20 -20 -20 -20 -20 -20 -20 -20
-10 -7 17 4 15 28 36 35 33 33 39 36 38 29 7 -17 -19 -9 -20 -20 -20 -20 -20 -20 -20 -20 -20
5 21 28 32 34 33 27 22 27 24 25 26 31 9 -19 -20 -20 -20 -20 -20 -20 -20 -20 -20 -20 -20 -20
16 17 22 24 23 25 20 23 27 28 24 9 -15 -20 -20 -20 -20 -20 -20 -20 -20 -20 -20 -20 -20 -20 -20
11 15 16 24 24 24 24 26 25 22 13 -19 -20 -20 -20 -20 -20 -20 -20 -20 -20 -20 -20 -20 -20 -20 -20
19 13 3 7 21 27 25 25 23 9 -20 -20 -20 -20 -20 -20 -20 -20 -20 -20 -20 -20 -20 -20 -20 -20 -20
17 16 15 17 25 24 23 17 10 -19 -20 -20 -20 -20 -20 -20 -20 -20 -20 -20 -20 -20 -20 -20 -20 -20 -20

GFSFLT2_prec_radar_012.txt.gz
Reflectivity
14 16 22 24 15 -7 -11 -17 -18 -20 -20 -15 -11 12 -20 22 18 21 13 12 15 2 27 -20 -20 -20 -20
-18 4 9 16 -13 12 -8 2 9 18 32 10 -6 7 13 12 27 34 12 26 1 24 -11 -16 -20 -20 -20
-16 -19 -0 7 9 14 7 7 18 23 24 18 12 17 11 25 33 30 37 36 21 35 -17 -6 -20 -20 -20
20 14 -16 -16 22 13 7 -14 7 41 33 21 16 13 32 32 29 21 24 37 23 34 11 27 -17 -20 -20
3 7 -0 6 2 -5 7 -16 -14 16 15 36 24 30 25 35 28 30 20 33 38 37 22 -13 -14 -20 -20
0 -20 -15 12 5 -1 15 16 7 -1 30 12 27 21 37 39 33 34 30 30 34 23 24 10 -20 -20 -20
-6 -1 16 -2 13 17 -1 -0 21 -12 13 22 36 27 30 24 33 31 35 35 32 20 29 7 -20 -7 -20
16 8 3 -19 -18 -5 7 15 20 16 21 14 26 23 22 31 34 35 33 36 35 27 16 -9 -20 -20 -20
7 10 13 13 13 1 2 7 -14 17 21 19 19 1 24 31 35 34 35 35 29 14 -18 -20 -13 -18 -20
-5 9 -5 7 16 5 4 25 17 12 18 38 21 22 23 23 25 32 37 36 28 8 -20 -10 -11 -20 -20
-19 -15 5 7 -8 -17 19 35 23 29 22 32 31 30 20 22 25 27 26 14 -20 -20 -20 -6 -11 -20 -20
-13 -6 10 10 11 13 23 21 28 30 33 32 19 19 20 27 29 27 13 -17 -8 8 1 -19 -20 -20 -20
-6 -4 2 17 24 20 21 23 26 22 22 22 29 25 27 26 21 15 9 10 4 -19 -20 -20 -20 -20 -20
15 -7 3 20 22 27 27 26 23 18 21 21 22 19 17 14 6 2 9 -6 -20 -20 -20 -20 -20 -20 -20
-9 -5 15 18 23 27 28 23 18 16 19 18 15 9 -2 -14 -20 -20 -20 -20 -20 -20 -20 -20 -20 -20 -20
-10 5 15 20 24 25 27 20 17 12 11 9 -5 -20 -20 -20 -20 -20 -20 -20 -20 -20 -20 -20 -20 -20 -20
4 11 17 17 22 22 24 17 12 6 -3 -20 -20 -20 -20 -20 -20 -20 -20 -20 -20 -20 -20 -20 -20 -20 -20

GFSFLT2_prec_radar_015.txt.gz
Reflectivity
-11 -20 -20 6 -15 3 10 15 -3 -20 -20 -20 -10 15 23 -3 -8 -8 -20 -13 4 20 21 22 20 2 -20
-20 -20 -13 -14 2 4 3 24 13 12 -12 -20 -20 -20 19 24 19 6 15 -20 -9 20 25 20 17 2 40
-14 -7 -7 10 12 10 13 -20 10 -10 19 -14 12 -14 33 18 42 23 19 14 12 22 23 33 25 38 28
-20 -20 -20 -20 1 1 12 7 7 -5 -20 -20 -20 -20 -20 -0 29 36 16 -0 28 35 36 33 36 29 23
-16 -8 -17 -4 -11 -8 -1 6 -15 11 1 -20 -20 -20 -20 -4 30 19 29 24 36 35 35 31 34 31 31
-2 -15 -19 5 8 8 11 13 1 5 13 -3 -20 -20 -20 12 12 13 31 34 30 30 36 33 31 32 30
1 -17 6 8 5 11 9 9 14 4 7 24 20 5 -20 -0 25 7 29 30 27 37 35 31 29 27 32
-20 -13 6 9 14 3 12 8 8 -4 -20 -17 -20 -20 -18 -20 17 25 27 27 33 36 33 29 31 33 34
12 19 12 14 16 17 9 7 23 14 -11 -7 -13 -20 -16 -11 31 30 29 27 30 33 32 34 35 29 26
-1 -20 6 7 6 8 5 18 18 18 6 -10 -5 3 12 5 25 34 34 33 34 32 36 33 28 23 8
-20 -20 -20 -14 6 6 2 26 27 19 13 29 18 14 16 24 18 26 34 37 36 35 32 30 25 13 14
-19 -19 -17 -7 -8 -1 -5 18 18 24 17 26 32 22 19 19 20 25 26 25 29 23 26 18 18 19 -4
0 -8 1 -10 -3 -5 -1 14 20 19 23 24 21 23 24 21 20 23 21 24 23 18 16 17 8 -11 -1
11 -5 -0 -16 -7 13 17 20 21 21 21 24 24 24 21 21 20 22 20 21 19 18 11 7 -1 -19 -20
9 -9 -20 -17 3 19 23 23 20 22 22 24 23 20 17 16 15 15 16 12 4 1 -12 -20 -20 -20 -20
1 -20 -8 11 16 21 23 23 22 23 24 22 21 20 17 12 5 -3 -15 -16 -20 -20 -20 -20 -20 -20 -20
11 9 12 14 18 21 21 22 21 20 18 16 12 4 -13 -20 -20 -20 -20 -20 -20 -20 -20 -20 -20 -20 -20

GFSFLT2_prec_radar_021.txt.gz
Reflectivity
-20 -20 -1 -20 -20 -20 -20 -20 -20 -20 -20 -20 -20 -5 -3 2 -12 -8 19 22 24 19 37 33 28 27 28
-20 -1 -20 -20 -20 -20 -4 -19 -20 -20 -20 -15 -20 -20 -20 -2 -1 10 -17 6 14 21 23 8 34 31 29
-1 -20 -20 -11 -3 -12 -10 -4 -20 -20 -20 -20 -20 -20 -20 -20 -8 -18 -20 2 19 15 9 15 10 20 28
11 -2 -9 -20 1 -1 -19 -6 -0 -20 -20 -20 -20 -20 -20 -20 -18 -20 -20 -20 -11 8 7 6 11 -8 21
10 9 9 9 2 -20 1 -12 -20 -20 -20 -20 -8 -4 -0 -20 -20 3 -18 -20 -20 -20 -14 12 17 6 6
12 13 5 -20 -20 7 9 11 6 -16 8 16 -15 -20 -20 -20 -20 -20 -20 5 2 5 -20 -20 4 5 4
12 14 14 3 10 16 11 12 24 6 17 6 -18 7 -2 -20 -20 -20 -20 3 5 -12 -5 -15 -20 1 -20
9 7 5 9 17 24 30 16 1 -2 11 14 -1 -5 -8 -20 -1 -20 -20 -16 6 -11 -20 -10 -4 -11 -16
3 8 8 2 -2 18 14 13 9 -10 10 14 13 2 -10 5 -7 11 -6 -20 -20 -20 -20 -20 1 15 22
-6 -20 -20 -19 -4 16 30 21 15 7 11 13 3 2 24 4 3 13 -1 -20 -20 -20 2 16 15 -6 12
-20 -14 -2 4 2 8 19 23 17 11 0 17 9 1 23 11 -16 -20 -20 -14 -18 15 20 19 8 19 22
-20 4 7 4 2 7 0 19 17 17 16 -7 13 1 4 -3 -20 -20 2 25 6 17 17 25 26 30 30
6 6 5 4 1 3 -0 2 10 13 6 -3 7 -8 7 7 0 -8 15 20 21 20 21 22 28 29 33
6 7 4 -1 0 -18 12 5 6 10 7 4 3 5 4 11 13 9 14 20 30 23 18 20 30 29 19
6 0 -19 -19 -20 9 3 7 11 9 8 8 9 13 7 8 9 16 17 20 21 20 16 5 14 21 27
5 -1 8 6 10 9 12 12 12 11 12 13 13 13 13 10 14 15 20 21 20 18 17 11 15 20 26
9 15 11 10 14 13 11 15 12 10 12 13 12 11 20 16 18 22 17 17 17 19 18 16 13 18 14

GFSFLT2_prec_radar_024.txt.gz
Reflectivity
-20 -20 -20 -20 -20 -20 -20 -20 -20 -20 -20 -20 -20 -20 -18 -13 -20 -20 5 7 -18 11 23 28 31 30 19
-19 -20 -20 -20 -20 -20 -20 -20 -20 -20 -20 -20 -20 -20 -20 -20 -20 -19 -20 -20 -20 -15 10 10 19 21 -3
-4 -20 -20 -20 -20 -20 -20 -20 -20 -20 -20 -20 -20 -20 -20 -20 -20 -20 -8 -7 -19 -20 -20 -10 7 6 9
1 -1 -6 -19 -8 4 3 -20 -14 -20 -20 -20 -20 -20 -20 -20 -20 -20 1 -20 -14 -8 -20 -20 -16 -5 7
10 17 1 -20 -3 -6 9 -0 -20 -20 -1 3 -6 9 -9 -18 -20 -20 -20 -18 -17 -15 -12 -1 -4 3 3
14 12 -20 4 7 7 5 6 11 -20 6 12 10 8 -17 -20 -16 4 1 -20 -20 -9 4 -13 2 -16 -2
9 7 8 3 8 9 11 21 19 -16 8 3 -20 7 -20 -20 -20 -4 -14 -11 3 -18 -20 4 12 -18 -3
5 5 9 10 14 19 14 12 7 6 12 21 10 1 -3 -10 -20 3 2 6 11 -1 -1 4 -20 -20 -19
1 5 -16 -3 2 5 12 15 9 8 6 24 13 15 19 4 -20 -19 -1 14 18 15 2 -20 -18 3 -6
-0 -20 -20 -20 -4 3 19 17 13 10 9 23 11 10 10 -20 6 -18 -1 18 12 3 -20 -20 -14 4 -20
-13 0 -2 1 5 8 9 17 15 11 -7 16 14 12 14 7 -20 -20 -20 -13 -20 -20 -20 -19 3 13 -8
7 7 8 6 5 7 3 4 3 10 -3 12 17 10 7 7 3 -9 -19 -20 2 14 -8 19 26 26 20
10 7 6 4 6 6 4 0 -3 5 18 18 10 -4 4 5 1 8 4 23 28 4 13 0 4 13 21
10 8 6 6 7 5 12 4 16 12 12 10 13 12 7 4 3 12 -3 22 25 25 26 27 27 24 24
8 6 5 3 7 8 11 15 12 9 8 3 6 12 16 10 9 18 11 19 29 30 28 23 32 34 33
6 9 13 12 14 14 11 12 12 12 13 13 10 7 14 11 12 14 16 20 22 35 32 11 13 29 26
11 13 10 12 13 12 8 3 2 -1 1 2 8 15 15 9 14 17 13 20 17 16 13 2 1 26 24

GFSFLT2_prec_radar_027.txt.gz
Reflectivity
-20 -20 -20 -20 -20 -20 -20 -20 -20 -20 -20 -20 -20 -12 -20 -20 -20 -20 -20 -5 4 9 6 2 19 21 5
-20 -20 -20 -20 -20 -20 -3 -20 -20 -20 -20 -20 -20 -20 -20 -20 -20 -20 -20 -17 2 7 2 -1 9 14 13
-17 -20 -20 -20 -19 -20 -20 -20 -20 -20 -20 -20 -20 -20 -20 -19 -20 -20 3 -0 5 7 8 5 3 -20 11
8 7 4 -19 7 -7 -20 -20 -20 -20 -20 -20 -20 -20 -18 -20 -5 8 10 7 10 -12 15 2 7 11 3
10 13 15 -8 -20 -20 -10 -20 -20 -20 -20 -20 -1 8 -19 -20 -20 12 -0 10 6 1 8 11 2 -15 6
19 19 -20 -20 -20 2 4 -5 -16 -9 8 -20 -20 -20 -20 -20 -20 -20 -7 -20 -20 -20 -20 -20 -20 5 -17
5 -8 -11 -20 -13 3 8 12 6 -6 9 -20 3 -5 7 6 8 -14 -20 10 13 6 5 6 -13 -20 3
1 -16 -2 4 9 8 6 6 -4 3 6 6 -7 7 -20 -4 5 -15 -19 -17 3 9 -7 8 -11 -5 0
-16 -17 4 -1 -2 -1 2 9 -11 -4 1 -17 -3 7 -6 4 -20 -20 7 22 13 18 5 9 8 -1 9
-20 -20 -20 -20 -0 -2 9 17 6 -3 -6 9 3 7 5 -19 15 24 17 2 7 12 14 16 7 0 -7
-15 -10 -13 2 3 1 4 11 15 6 -19 9 10 1 -2 -2 -0 -20 -20 -20 11 -18 -17 0 -4 -12 -12
4 1 3 -1 -4 -1 -4 -10 -10 9 3 -5 17 -2 3 2 -9 -18 -20 -5 20 -8 -20 -15 -20 -20 6
6 3 -11 -19 -20 -10 -16 1 -7 2 11 22 19 4 -18 -20 -20 -9 -8 -4 27 27 17 -11 -1 4 18
6 -20 -12 -6 5 7 11 8 6 5 -1 12 11 4 -19 -7 -6 -16 -14 2 15 25 26 -2 8 -5 -10
-0 1 -15 2 3 4 17 4 2 -9 -20 -18 -13 -12 -11 14 -3 1 -19 -9 17 27 30 32 31 28 24
-1 -4 7 7 -1 -7 5 -2 3 -14 -20 -3 -1 -12 -10 1 15 6 7 6 25 32 34 21 23 34 32
-18 -19 -18 -1 6 -1 -4 -20 4 6 4 -3 10 11 -0 -2 7 23 13 14 15 17 28 19 10 30 31

GFSFLT2_prec_radar_030.txt.gz
Reflectivity
-20 -20 -20 -20 -20 -20 -20 -20 -20 -20 -20 -5 -20 -20 -20 -20 -20 -20 -20 -20 -12 -20 -20 20 18 19 5
-20 -20 -20 -20 -20 -20 -20 -20 -20 -20 -20 -20 -20 -20 2 13 -20 -20 -19 11 9 10 -16 -7 -19 -15 13
-20 -20 -20 -20 -20 -20 10 -20 -20 -20 -20 -20 -20 -20 -20 -13 7 12 10 3 10 16 12 13 6 15 4
-1 5 -20 -5 17 -5 -20 -20 -20 -20 -20 -20 -20 -20 -20 -6 3 -4 -19 -20 -12 -20 17 15 7 6 11
6 -16 16 -19 -20 -20 -20 -20 -20 -20 -20 -20 -8 -20 -20 -20 -20 -20 -20 -20 -20 -11 -20 2 23 -4 4
19 -8 -20 -20 2 -20 -20 -20 -9 -3 -6 -20 -1 -20 -20 -20 -20 -7 21 -14 25 22 18 -13 9 2 8
-1 -2 0 -20 -20 -14 -2 9 7 -3 -2 -20 -11 -17 -15 1 -20 2 -18 -10 15 2 14 18 16 8 -2
-5 -9 6 10 10 10 3 1 -8 -17 2 -20 -3 9 -20 -20 -1 4 -8 -8 -20 -5 -1 -17 -2 13 12
7 9 -11 -20 2 11 10 5 -6 -8 -20 -20 -20 -12 -8 -20 -17 -2 11 25 27 14 13 11 11 15 7
-20 -20 -20 -20 1 -0 8 14 1 -4 -10 5 -4 -20 5 -20 -13 -19 -20 -20 -20 -20 -18 9 13 4 13
-20 -20 -20 -11 -20 -17 4 17 18 12 -19 15 15 -3 6 -1 -14 -4 -2 -20 -20 -20 -20 -10 -20 -11 2
-0 -20 -20 -20 -20 -20 -12 -0 2 16 12 16 17 11 13 -4 -19 -16 -20 -20 -20 -20 -16 15 6 -20 -20
-0 -20 -20 -19 -20 -20 -12 4 9 4 1 -20 -11 -2 -18 -20 -20 -20 -18 -1 12 28 20 -8 -20 -20 -20
7 -14 -18 -15 -18 3 -9 -5 -13 -11 11 9 8 -15 -20 -20 4 -12 -9 11 3 22 28 13 -15 -20 -17
-7 -20 -19 -20 -17 -12 -4 -9 -1 6 4 -12 -5 -17 -20 -18 6 -16 7 8 19 24 29 26 17 19 13
-20 -18 -19 -20 -13 -20 -13 -4 9 -15 5 -7 -19 -20 -20 -16 15 11 11 5 19 31 35 34 27 30 28
-14 -1 -19 -20 -18 -3 -11 -17 -20 -7 -20 -18 -15 -20 -19 -17 4 30 13 12 25 24 23 1 26 35 31

GFSFLT2_prec_radar_033.txt.gz
Reflectivity
-20 -20 -20 -20 -20 -20 -20 -20 -20 -20 -4 16 10 -20 -20 -20 -20 -20 -20 -20 -4 -8 -8 -15 5 20 18
-20 -20 -20 -20 -20 -20 -20 1 -8 -19 -20 -20 -20 -19 -20 -20 -5 -9 -19 -20 -20 -20 -20 -20 14 20 1
-20 -20 -20 -20 -20 -16 -20 -20 -20 -20 -20 -20 -20 -20 -20 -20 -5 8 3 15 16 11 10 19 -12 -18 19
1 12 -20 -20 -6 -20 -20 -20 -20 -20 -20 -20 -20 -20 -20 -20 -20 -20 -20 -20 -20 -20 -20 -20 -20 -20 -17
-14 -6 13 -20 -20 -20 -20 -20 -20 -20 -20 -20 -9 3 -20 -20 -20 -20 -17 -3 2 1 4 18 17 11 17
18 -17 -20 -20 -20 -20 -9 10 9 6 7 -19 -20 -20 -20 -20 -15 2 7 11 15 -9 24 8 3 17 14
-11 -4 5 -20 -10 15 4 -15 4 -20 -2 -20 -12 -20 -20 -14 2 5 -2 -17 -10 6 6 9 8 12 -1
-8 -2 8 14 -4 -12 3 4 -18 -20 -9 7 -20 -20 -20 -20 -20 -20 -11 6 7 13 14 12 11 -5 -20
14 1 -20 -20 -5 17 6 -7 -18 -19 -5 9 -8 -20 -20 -20 -20 -20 -20 -1 15 20 14 20 18 11 3
-20 -20 -20 -20 -2 -2 11 15 -0 -6 -5 10 -10 -11 8 8 -20 -20 -20 -20 -20 4 1 3 -0 -16 -4
-20 -20 -20 -20 -20 -16 -2 14 16 7 -20 15 11 1 -9 -11 -20 -20 -20 -20 -20 -20 -20 -12 -14 -2 -6
-20 -20 -20 -20 -20 -20 -20 -13 -2 10 1 13 15 8 2 -20 -20 -20 -18 -20 -6 -18 -17 -20 -8 -1 13
-20 -20 -20 -20 -20 -20 -18 9 14 14 14 -1 8 4 1 -15 -20 -20 7 9 16 16 -2 -20 -20 -20 -1
-20 -20 -20 -20 -6 -13 -7 -20 -1 -7 9 5 13 1 -19 -20 2 -2 -3 18 21 27 22 17 -20 -20 -20
-20 -20 -20 -20 -12 -16 -8 -14 -14 5 -18 -20 -15 -18 -20 -15 -0 1 16 14 23 29 26 19 14 -20 -20
-20 -20 -14 -20 -20 -20 -20 -15 4 -19 -7 -20 -20 -20 -20 -15 14 15 17 15 31 30 34 13 21 23 7
-17 -3 -18 -20 -20 -19 -20 -20 -20 -7 -20 -20 -19 -18 -1 -18 -18 29 9 18 30 30 33 33 33 33 23

GFSFLT2_prec_radar_036.txt.gz
Reflectivity
-20 -20 -20 -20 -20 -20 -20 -20 -20 -20 -4 -20 -14 -14 -17 -12 -11 2 -5 -14 -18 -7 16 10 18 20 22
-20 -20 -20 -20 -20 -20 2 10 4 -19 -20 -20 -20 -10 -20 -20 -20 -3 -4 -16 7 -18 0 10 9 12 16
-20 -20 -20 -20 -20 -20 -20 -20 -20 -20 -20 -20 -20 -20 -20 -20 -16 -4 10 11 19 -10 -12 11 13 17 19
-9 -3 -20 -20 7 -20 -20 -20 -20 -20 -20 -20 -5 -20 -20 -19 -8 -1 3 -4 -20 -14 -12 -18 -20 -13 -2
-20 3 18 -20 -20 -20 -20 -20 -20 -16 -18 -20 -5 -8 -19 -19 -20 -20 -20 -15 -17 -13 -0 4 10 10 9
19 -20 -20 -20 -20 -20 3 7 -18 -20 -14 -15 -20 -20 -20 -20 -15 0 1 1 7 13 15 23 19 22 17
-20 -20 -15 -20 12 8 -20 -20 -20 -20 -17 -14 -20 -20 -20 -20 -20 -4 4 -1 4 9 10 13 11 10 11
-12 -4 8 -1 -9 3 3 3 -14 -13 7 8 -20 -20 -20 -20 -20 -20 -13 3 8 9 11 14 14 13 11
13 -3 -20 -17 4 16 -3 -8 -20 -7 -18 -20 -20 -20 -20 -7 -20 -20 -20 3 7 12 17 18 19 17 14
-20 -20 -20 -20 -15 -9 7 12 -13 -19 -20 8 -7 -11 11 1 -14 -20 -20 -20 -12 3 8 7 5 12 14
-20 -20 -20 -20 -20 -20 -6 14 14 3 -20 18 13 -18 -0 -0 -19 -20 -20 -20 -20 -18 -6 6 2 5 9
-20 -20 -20 -20 -20 -20 -8 -2 8 19 14 6 18 11 9 -15 -20 -20 -8 -0 14 10 3 -13 6 -1 7
-20 -20 -20 -20 -20 -20 -11 -4 13 15 12 -16 7 7 -9 -9 -18 -20 1 13 17 16 13 2 -6 -20 4
-20 -20 -20 -20 -20 -20 -20 -20 -20 -5 7 -5 4 4 -8 -20 4 1 8 20 10 20 24 13 -15 -20 -17
-20 -20 -20 -20 -20 -20 -20 -20 -20 -20 -19 -20 -20 -17 -13 5 17 11 15 -4 22 31 23 22 1 -7 11
-20 -20 -20 -20 -20 -20 -20 -20 -20 -20 -17 -20 -20 -20 -20 -19 17 19 9 3 28 34 29 14 15 11 -13
-20 -19 -10 -20 -20 -20 -20 -20 -20 -19 -20 -17 -19 -20 -20 -20 -15 24 19 19 30 30 20 14 20 27 12

GFSFLT2_prec_radar_039.txt.gz
Reflectivity
-20 -20 -20 -20 -20 -20 -20 -20 -20 -14 8 -20 -7 -20 -19 -1 1 1 9 7 1 -8 18 19 10 20 -4
-20 -20 -20 -20 -20 -20 2 2 12 -20 -20 -20 -13 -20 5 -2 10 19 18 -6 2 4 -5 2 11 6 -3
-20 -20 -20 -20 -18 -20 -20 -20 -20 -20 -20 -20 -20 -20 -19 -12 6 15 19 18 18 18 18 17 18 19 18
-11 -5 -1 -3 -18 -20 -20 -20 -20 -20 -20 -20 0 -3 -20 -20 -20 -19 -17 -17 -16 -6 -5 7 17 17 17
12 -5 -20 -20 -20 -20 -20 -20 -20 -1 -20 -20 -20 -20 -20 -20 -20 -20 -17 3 5 -7 -0 0 4 10 11
-20 -20 -20 -20 -20 -19 8 -19 -13 -14 -14 -6 -20 -20 -20 -20 -20 -12 1 8 -0 12 16 14 14 14 14
-20 -20 -20 -17 12 -13 -20 -20 -20 -20 -16 -10 -20 -20 -20 -20 -20 -20 -1 7 9 11 13 15 16 15 16
-20 -9 11 -12 -20 -11 2 3 -14 -19 3 5 -20 -20 -20 -20 -20 -20 -5 4 10 14 15 12 14 16 15
13 -7 -20 -20 -9 15 -9 -9 -20 -20 -20 -8 -20 -20 -20 -20 -20 -20 2 5 7 12 3 8 10 16 15
-20 -20 -20 -20 -20 -13 10 12 -15 -13 -20 12 -9 -14 7 -20 -20 -20 -20 -20 -14 -1 5 9 8 7 -6
-20 -20 -20 -20 -20 -20 -20 1 14 4 -20 16 9 -19 -4 -16 -20 -20 -17 -17 -8 -20 -18 1 6 13 23
-20 -20 -20 -20 -20 -20 -20 -20 -20 5 9 -0 16 2 8 -8 -20 -20 -5 17 17 8 5 -6 18 11 12
-20 -20 -20 -20 -20 -20 -20 -20 -20 -13 3 -20 5 1 8 13 -1 0 17 -4 5 17 14 12 -14 -13 -12
-20 -20 -20 -20 -20 -20 -20 -20 -20 -11 1 -7 9 2 8 7 19 6 -9 20 16 15 20 13 8 -17 -20
-20 -20 -20 -20 -20 -20 -20 -20 -20 -20 -20 -20 -18 0 5 8 -5 4 18 8 26 32 14 -18 -20 -20 -20
-20 -20 -20 -20 -20 -20 -20 -20 -20 -20 -16 -20 -20 -16 1 -5 16 14 6 27 31 32 26 2 -8 -18 -4
-20 -20 -14 -20 -20 -20 -20 -20 -20 -20 -20 -20 -20 -20 -20 -19 8 -5 20 20 18 24 29 16 20 14 -16

GFSFLT2_prec_radar_042.txt.gz
Reflectivity
-20 -20 -20 -20 -20 -20 -20 -20 -20 -20 -5 -20 -20 -20 -12 -1 -9 17 -5 0 18 19 19 19 -1 17 16
-20 -20 -20 -20 -20 -18 -20 -6 -20 -20 -20 -20 -20 3 -2 7 11 13 16 21 19 18 17 18 19 18 15
-20 -20 -20 -19 -20 -20 -20 -20 -20 -20 -20 -20 -20 -17 -15 -4 10 14 13 13 -11 -17 12 17 18 18 19
-20 12 -14 -20 -20 -20 -20 -20 -20 -20 -20 -3 -14 -20 -20 -20 -20 -20 -9 -18 -18 -11 -4 6 -10 8 14
-8 -20 -20 -20 -20 -20 -20 -20 -20 -20 -20 -20 -20 -20 -20 -20 -20 -20 -20 2 6 7 -20 -2 7 14 4
-20 -20 -20 -20 -20 -11 -0 -20 -16 -20 -20 -20 -20 -20 -20 -20 -20 -20 -2 2 4 9 10 13 16 15 18
-20 -20 -20 -7 3 -19 -20 -17 -18 -20 -20 -20 -20 -20 -20 -19 -20 -20 -2 4 7 9 11 14 14 16 14
-20 -15 4 -15 -14 -14 -3 3 -20 -20 -20 -20 -20 -20 -20 -10 -20 -20 -20 3 6 9 12 13 14 15 16
12 -3 -20 -20 -17 7 -18 -17 -20 -20 -20 -20 -20 -20 -20 -20 -20 -20 -20 -15 -6 -3 7 9 11 16 17
-20 -20 -20 -20 -20 -20 -17 4 -20 -11 -20 6 -15 -12 5 -20 -1 -16 -20 -20 -20 -7 6 11 10 6 2
-20 -20 -20 -20 -20 -20 -20 10 8 -2 -20 17 6 -19 -8 -20 -20 -20 6 1 -3 -12 -4 5 12 14 26
-20 -20 -20 -20 -20 -20 -20 -20 -20 -0 -18 -11 15 4 7 -7 -15 -20 0 9 1 -10 -20 -15 12 15 15
-20 -20 -20 -20 -20 -20 -20 -20 -20 -20 -20 -20 9 -4 -3 13 14 -0 2 -20 -20 -17 3 3 15 11 3
-20 -20 -20 -20 -20 -20 -20 -20 -20 -20 -2 12 10 10 9 -17 19 4 -20 17 18 22 28 10 -3 -10 -16
-20 -20 -20 -20 -20 -20 -20 -20 -20 -20 -20 -1 -0 4 8 5 -11 -19 13 -5 18 23 19 -12 -20 -20 -20
-20 -20 -20 -20 -20 -20 -20 -20 -20 -20 -20 -20 -20 -15 -15 -8 13 12 -14 3 12 22 27 6 -9 -19 -20
-20 -20 -9 -20 -19 -20 -20 -20 -20 -20 -20 -20 -20 -19 -20 -20 -7 -19 13 9 7 5 18 16 5 11 -19

GFSFLT2_prec_radar_045.txt.gz
Reflectivity
-20 -20 -20 -20 -20 -20 -20 -3 -17 -20 -20 -6 -20 -20 -20 -8 8 9 10 15 16 18 19 -6 19 20 21
-20 -20 -20 -20 -17 2 -20 -20 -20 -20 -20 -20 -20 -4 -18 -19 -2 8 -17 11 -2 13 17 17 19 18 18
-20 -20 -15 6 -12 -20 -20 -20 -20 -20 -20 -20 -20 -5 2 5 -13 1 0 4 5 11 11 11 12 14 17
-6 9 -13 -20 -20 -20 -20 -20 -20 -20 -20 -20 -20 -20 -20 -20 -20 -20 -7 0 5 -3 8 -2 2 9 -1
5 -20 -7 -20 -20 -20 -9 -2 -0 -20 -20 -20 -20 -20 -20 -20 -20 -20 -20 -1 3 7 11 12 10 12 11
8 2 -20 -20 -20 1 11 -20 -20 -20 -20 -20 -20 -20 -20 -20 -20 -20 -8 -0 0 7 9 13 18 17 17
-17 -20 -20 -20 3 7 8 10 7 -20 -20 -20 -20 -20 -20 -20 -20 -20 -20 -16 4 7 10 14 16 14 15
-20 -3 10 3 -6 6 9 9 -12 -20 -20 -20 -20 -20 -20 -20 -20 -20 -20 -19 -4 3 8 11 11 13 12
8 -2 -20 -20 -15 3 -11 -20 -20 -20 -20 -20 -20 -20 -20 -20 -20 -20 -20 4 10 1 10 12 14 12 12
-20 -20 -20 -20 -20 -20 3 -7 -20 -10 -20 5 -20 -20 -1 -20 -20 -20 -20 -20 -20 -1 15 19 18 22 16
-20 -20 -20 -20 -20 -20 -16 9 0 -18 -20 10 -1 -20 -14 -20 -20 -20 -20 -20 -20 -20 -17 10 22 22 18
-20 -20 -20 -20 -20 -20 -20 -20 -12 -20 -20 -19 13 -3 5 -13 -20 -20 -20 -20 -10 -18 -16 -20 -14 26 29
-18 -20 -20 -20 -20 -20 -20 -20 -20 -20 -20 -20 3 -2 -17 1 13 -16 -20 -20 -20 -13 9 10 25 16 10
-20 -20 -20 -20 -20 -20 -20 -20 -20 -20 -20 -20 8 6 10 -19 8 -17 -20 8 19 1 -1 10 21 -17 -18
-20 -20 -20 -20 -20 -20 -20 -20 -20 -20 -20 -20 4 6 -10 -0 -16 -20 14 11 6 10 17 18 -6 -9 -2
-20 -20 -20 -20 -20 -20 -20 -20 -20 -20 -20 -20 -20 -13 -0 4 -13 6 -10 7 11 17 19 -11 -1 -13 -20
-20 -20 -20 -20 -20 -20 -20 -20 -20 -20 -20 -20 -20 -18 -20 -20 -20 2 9 10 7 6 19 9 11 -17 -20

GFSFLT2_prec_radar_048.txt.gz
Reflectivity
-20 -20 -20 -20 -20 -20 -20 -20 -20 -20 -20 -20 -20 -4 -5 -9 -12 -19 -11 -16 -3 14 19 19 18 18 18
-20 -20 -20 -20 -20 -20 -20 -20 -20 -20 -20 -20 -20 -20 -0 -17 4 7 8 7 9 11 14 11 18 19 18
-3 -20 -17 -15 -4 -20 -20 -20 -20 -20 -20 -20 -20 -20 -20 -20 -20 -20 -20 0 -15 -0 -18 4 9 -8 10
3 -11 9 -20 -20 -20 -20 -20 -20 -20 -20 -20 -20 -20 -20 -20 -20 -20 -20 -19 1 4 7 1 8 7 11
15 6 -20 -20 -20 -20 1 -6 -6 -20 -20 -20 -20 -20 -20 -20 -20 -20 -20 -20 -12 -0 6 11 13 13 10
9 6 -20 -20 -17 3 9 11 -0 -20 -20 -20 -20 -20 -20 -20 -20 -20 -20 -20 -8 2 6 9 11 12 14
0 -20 -17 -7 3 12 6 9 9 -9 1 -20 -20 -20 -20 -20 -20 -20 -20 -20 -6 -1 7 9 11 12 13
-20 -20 3 8 5 3 8 4 -2 -20 -20 -20 -20 -20 -20 -20 -20 -20 -20 -20 -20 -15 -12 9 14 15 16
1 6 -8 -20 -4 5 6 7 -20 -20 -20 -20 -20 -20 -20 -20 -20 -20 -20 -20 -20 -20 -13 10 11 15 15
-4 -20 -20 -20 -20 -11 6 8 -18 -19 -20 -6 -19 -0 -5 -20 -20 -20 -20 -20 -20 -20 6 5 1 8 10
-20 -20 -20 -20 -20 -17 -11 8 6 -8 -20 6 -1 -20 -6 -20 -20 -20 -20 -20 -20 -11 -20 -20 -6 15 27
-20 -20 -8 -15 -3 -4 -3 1 3 -3 -20 -19 9 -6 -2 -13 -20 -20 -20 -20 1 3 5 4 12 11 12
3 1 2 -0 2 2 0 -1 -20 -13 -17 -20 5 -17 5 3 -8 -19 -20 -20 3 6 -2 -5 -4 13 20
3 -1 -0 2 2 3 -10 -17 -16 -20 -20 -20 -15 6 10 -2 1 -19 -20 -7 8 12 -3 -8 6 24 21
1 1 -9 -1 -10 -1 -11 3 -9 -20 -20 -20 -10 -9 0 -20 -14 -20 -20 4 -2 20 10 7 -6 9 1
-14 -8 -13 -20 -12 -9 -1 -13 -20 -20 -20 -19 4 -14 -2 11 5 -20 3 -20 -17 21 15 12 -17 -8 -15
-3 -20 -20 4 -19 -11 -20 -20 -20 -20 -20 -18 6 6 -9 -20 -16 4 11 -14 -16 1 13 9 -6 -5 -8